This demonstration page uses our WeatherBlox Daily Observations layout. Learn more.

41.55636, -103.73856

Hourly Observations for April 12, 2019

Temp ( °F °C ) Dew Point ( °F °C ) Humidity (%) Winds ( mph kmh ) Pressure ( in mb ) Visibility ( mi km ) Precip ( " mm )
12:58 am 00:58 Mostly Cloudy with Scattered Snow Showers 22 -5.8 19 -7.2 90 90 N 23 37 29.89 1012 3 4.82802 0 0
1:58 am 01:58 Mostly Cloudy 21 -5.9 18 -7.7 87 87 NNW 23 37 29.91 1013 10 16.0934 0 0
2:58 am 02:58 Mostly Cloudy 20 -6.5 17 -8.4 87 87 NNW 18 30 29.93 1014 10 16.0934 0 0
3:58 am 03:58 Mostly Cloudy 20 -6.9 15 -9.4 83 83 NNW 21 33 29.93 1014 10 16.0934 0 0
4:58 am 04:58 Mostly Cloudy 19 -7.3 15 -9.7 83 83 NW 15 24 30.02 1017 10 16.0934 0 0
5:58 am 05:58 Partly Cloudy 19 -7.5 14 -10.1 82 82 NNW 17 28 30.03 1017 10 16.0934 0 0
6:58 am 06:58 Clear 18 -8 12 -11 79 79 NW 17 28 30.03 1017 10 16.0934 0 0
7:58 am 07:58 Clear 17 -8.5 12 -11.3 80 80 NNW 18 30 30.03 1017 10 16.0934 0 0
8:58 am 08:58 Clear 18 -7.8 11 -11.5 75 75 NNW 20 31 29.91 1013 10 16.0934 0 0
9:58 am 09:58 Clear 13 -10.3 10 -12.5 84 84 NW 14 22 29.95 1014 10 16.0934 0 0
10:58 am 10:58 Mostly Clear with Light Snow Showers 11 -11.8 8 -13.4 88 88 WNW 13 20 29.98 1015 10 16.0934 0 0
11:58 am 11:58 Mostly Cloudy 15 -9.5 10 -12 82 82 NW 12 19 29.96 1014 10 16.0934 0 0
12:58 pm 12:58 Cloudy with Light Snow 19 -7.1 15 -9.7 82 82 NW 12 19 29.97 1015 10 16.0934 0 0
1:58 pm 13:58 Sunny 19 -7 15 -9.6 82 82 NNW 13 20 29.99 1016 10 16.0934 0 0
2:58 pm 14:58 Sunny 20 -6.7 15 -9.7 79 79 NW 16 26 30.03 1017 10 16.0934 0 0
3:58 pm 15:58 Mostly Sunny 22 -5.8 17 -8.6 81 81 WNW 9 15 30.02 1017 10 16.0934 0 0
4:58 pm 16:58 Sunny 23 -4.9 19 -7.1 85 85 NW 14 22 30.04 1017 10 16.0934 0 0
5:58 pm 17:58 Mostly Sunny 26 -3.5 20 -6.5 80 80 NW 15 24 30.02 1017 10 16.0934 0 0
6:58 pm 18:58 Sunny 28 -2.2 21 -6.2 74 74 NNW 15 24 30.02 1017 10 16.0934 0 0
7:58 pm 19:58 Mostly Sunny 29 -1.4 22 -5.8 72 72 NNW 9 15 30.02 1017 10 16.0934 0 0
8:58 pm 20:58 Mostly Cloudy 31 -0.5 21 -6.3 65 65 NW 12 19 30 1016 10 16.0934 0 0
9:58 pm 21:58 Mostly Cloudy 32 -0.2 20 -6.5 63 63 NW 9 15 30.03 1017 10 16.0934 0 0
10:58 pm 22:58 Mostly Cloudy 31 -0.7 19 -7.1 62 62 NNW 5 7 30.06 1018 10 16.0934 0 0
11:58 pm 23:58 Partly Cloudy 31 -0.3 18 -7.8 57 57 Calm 30.07 1018 10 16.0934 0 0

Powered by AerisWeather